Simultaneous Nadir Overpasses (SNOs) Predictions

Prediction of SNOs between GOES-16 and AQUA Satellite Orbit:

Table of predicted SNOs for the next 14.0 days since TLE Epoch: 9/7/2019
Index Date Time (GOES-16) GOES-16 Lat,Lon AQUA Lat,Lon Distance(km) Time Diff (sec)
1 09/07/2019 06:38:08 -0.01, -75.19 -0.00, -75.34 16.25 80
2 09/09/2019 06:23:16 -0.01, -75.20 -0.61, -72.38 320.84 80
3 09/09/2019 18:44:40 0.01, -75.20 -0.52, -77.57 269.51 80
4 09/11/2019 18:35:09 0.00, -75.21 0.15, -74.62 68.39 80
5 09/13/2019 18:22:57 -0.00, -75.23 0.77, -71.66 406.90 80
6 09/14/2019 06:44:12 0.00, -75.24 0.33, -76.81 178.31 80
7 09/16/2019 06:29:20 0.00, -75.27 -0.29, -73.85 161.00 80
8 09/16/2019 18:50:45 -0.00, -75.27 -0.78, -79.05 428.96 80
9 09/18/2019 18:38:33 -0.00, -75.31 -0.16, -76.09 89.14 80
10 09/20/2019 18:29:01 -0.00, -75.34 0.47, -73.13 250.91 80




NCC Satellite Simultaneous Nadir Overpasses (SNOs) Prediction Service
